Time,TemperatureF,DewpointF,PressureIn,WindDirection,WindDirectionDegrees,WindSpeedMPH,WindSpeedGustMPH,Humidity,HourlyPrecipIn,Conditions,Clouds,dailyrainin,SoftwareType,DateUTC
2013-03-06 00:00:00,37.4,31.5,29.84,West,266,1.0,10.0,79,0.00,,,0.00,meteohub,2013-03-06 05:00:00,
2013-03-06 00:01:00,37.2,31.3,29.84,SSE,166,3.0,10.0,79,0.00,,,0.00,meteohub,2013-03-06 05:01:00,
2013-03-06 00:06:00,36.7,31.5,29.83,NE,36,2.0,9.0,81,0.00,,,0.00,meteohub,2013-03-06 05:06:00,
2013-03-06 00:11:00,36.1,31.5,29.83,ESE,118,2.0,9.0,83,0.00,,,0.00,meteohub,2013-03-06 05:11:00,
2013-03-06 00:16:00,35.8,31.6,29.83,SSE,150,1.0,9.0,85,0.00,,,0.00,meteohub,2013-03-06 05:16:00,
2013-03-06 00:21:00,35.4,31.6,29.83,SE,136,2.0,6.0,86,0.00,,,0.00,meteohub,2013-03-06 05:21:00,
2013-03-06 00:26:00,35.2,31.8,29.82,WNW,302,2.0,6.0,87,0.00,,,0.00,meteohub,2013-03-06 05:26:00,
2013-03-06 00:31:00,34.9,31.5,29.81,NE,36,0.0,6.0,87,0.00,,,0.00,meteohub,2013-03-06 05:31:00,
2013-03-06 00:36:00,34.7,31.5,29.81,North,5,3.0,5.0,88,0.00,,,0.00,meteohub,2013-03-06 05:36:00,
2013-03-06 00:41:00,34.5,31.6,29.81,East,79,2.0,9.0,89,0.00,,,0.00,meteohub,2013-03-06 05:41:00,
2013-03-06 00:46:00,34.3,31.6,29.80,NNE,28,3.0,9.0,90,0.00,,,0.00,meteohub,2013-03-06 05:46:00,
2013-03-06 00:51:00,34.2,31.5,29.80,East,94,2.0,9.0,90,0.00,,,0.00,meteohub,2013-03-06 05:51:00,
2013-03-06 00:56:00,34.0,31.3,29.79,NE,38,1.0,9.0,90,0.00,,,0.00,meteohub,2013-03-06 05:56:00,
2013-03-06 01:01:00,34.0,31.6,29.79,NNE,32,0.0,6.0,91,0.01,,,0.01,meteohub,2013-03-06 06:01:00,
2013-03-06 01:06:00,33.8,31.5,29.79,NNE,15,4.0,6.0,91,0.01,,,0.01,meteohub,2013-03-06 06:06:00,
2013-03-06 01:11:00,33.6,31.5,29.79,NNE,20,2.0,6.0,92,0.01,,,0.01,meteohub,2013-03-06 06:11:00,
2013-03-06 01:16:00,33.6,31.5,29.78,NE,42,2.0,6.0,92,0.01,,,0.01,meteohub,2013-03-06 06:16:00,
2013-03-06 01:21:00,33.4,31.3,29.78,ENE,73,2.0,6.0,92,0.01,,,0.01,meteohub,2013-03-06 06:21:00,
2013-03-06 01:26:00,33.4,31.3,29.77,NNE,31,3.0,6.0,92,0.01,,,0.01,meteohub,2013-03-06 06:26:00,
2013-03-06 01:31:00,33.4,31.3,29.77,East,81,2.0,6.0,92,0.01,,,0.01,meteohub,2013-03-06 06:31:00,
2013-03-06 01:36:00,33.3,31.5,29.77,ENE,62,2.0,6.0,93,0.01,,,0.01,meteohub,2013-03-06 06:36:00,
2013-03-06 01:41:00,33.3,31.5,29.76,NNE,28,3.0,5.0,93,0.01,,,0.01,meteohub,2013-03-06 06:41:00,
2013-03-06 01:46:00,33.3,31.5,29.76,SE,126,1.0,6.0,93,0.01,,,0.01,meteohub,2013-03-06 06:46:00,
2013-03-06 01:51:00,33.1,31.3,29.75,NNE,27,1.0,7.0,93,0.01,,,0.01,meteohub,2013-03-06 06:51:00,
2013-03-06 01:56:00,33.1,31.3,29.75,NE,39,3.0,7.0,93,0.00,,,0.01,meteohub,2013-03-06 06:56:00,
2013-03-06 02:01:00,33.1,31.3,29.74,NE,49,1.0,7.0,93,0.00,,,0.01,meteohub,2013-03-06 07:01:00,
2013-03-06 02:06:00,33.1,31.5,29.74,NNE,24,3.0,7.0,94,0.00,,,0.01,meteohub,2013-03-06 07:06:00,
2013-03-06 02:11:00,33.1,31.3,29.74,East,88,1.0,6.0,93,0.00,,,0.01,meteohub,2013-03-06 07:11:00,
2013-03-06 02:16:00,33.1,31.5,29.73,SW,221,1.0,6.0,94,0.00,,,0.01,meteohub,2013-03-06 07:16:00,
2013-03-06 02:21:00,33.1,31.5,29.73,ENE,63,0.0,6.0,94,0.00,,,0.01,meteohub,2013-03-06 07:21:00,
2013-03-06 02:26:00,33.1,31.5,29.73,ENE,58,1.0,5.0,94,0.00,,,0.01,meteohub,2013-03-06 07:26:00,
2013-03-06 02:31:00,33.1,31.5,29.73,ESE,104,0.0,7.0,94,0.00,,,0.01,meteohub,2013-03-06 07:31:00,
2013-03-06 02:36:00,33.1,31.5,29.73,NE,48,3.0,9.0,94,0.00,,,0.01,meteohub,2013-03-06 07:36:00,
2013-03-06 02:41:00,33.1,31.5,29.73,East,89,2.0,9.0,94,0.00,,,0.01,meteohub,2013-03-06 07:41:00,
2013-03-06 02:46:00,33.1,31.5,29.73,NE,55,3.0,9.0,94,0.00,,,0.01,meteohub,2013-03-06 07:46:00,
2013-03-06 02:51:00,33.1,31.5,29.73,ESE,110,2.0,7.0,94,0.00,,,0.01,meteohub,2013-03-06 07:51:00,
2013-03-06 02:56:00,33.1,31.5,29.73,South,171,2.0,7.0,94,0.00,,,0.01,meteohub,2013-03-06 07:56:00,
2013-03-06 03:01:00,33.1,31.5,29.73,NE,46,2.0,7.0,94,0.00,,,0.01,meteohub,2013-03-06 08:01:00,
2013-03-06 03:07:00,33.1,31.5,29.72,ESE,109,0.0,7.0,94,0.00,,,0.01,meteohub,2013-03-06 08:07:00,
2013-03-06 03:12:00,33.1,31.5,29.71,ENE,58,3.0,7.0,94,0.00,,,0.01,meteohub,2013-03-06 08:12:00,
2013-03-06 03:17:00,33.1,31.5,29.70,ENE,74,1.0,7.0,94,0.00,,,0.01,meteohub,2013-03-06 08:17:00,
2013-03-06 03:22:00,33.1,31.5,29.70,ENE,57,2.0,7.0,94,0.00,,,0.01,meteohub,2013-03-06 08:22:00,
2013-03-06 03:27:00,33.1,31.8,29.69,ENE,64,1.0,7.0,95,0.00,,,0.01,meteohub,2013-03-06 08:27:00,
2013-03-06 03:32:00,33.1,31.8,29.68,ENE,61,0.0,6.0,95,0.00,,,0.01,meteohub,2013-03-06 08:32:00,
2013-03-06 03:37:00,33.1,31.8,29.68,ENE,63,0.0,6.0,95,0.00,,,0.01,meteohub,2013-03-06 08:37:00,
2013-03-06 03:42:00,33.1,31.8,29.68,ESE,117,0.0,6.0,95,0.00,,,0.01,meteohub,2013-03-06 08:42:00,
2013-03-06 03:47:00,33.3,32.0,29.68,ENE,69,0.0,6.0,95,0.00,,,0.01,meteohub,2013-03-06 08:47:00,
2013-03-06 03:52:00,33.3,32.0,29.68,ENE,57,1.0,6.0,95,0.00,,,0.01,meteohub,2013-03-06 08:52:00,
2013-03-06 03:57:00,33.3,32.0,29.67,NE,36,2.0,5.0,95,0.00,,,0.01,meteohub,2013-03-06 08:57:00,
2013-03-06 04:02:00,33.3,32.0,29.68,East,86,2.0,7.0,95,0.00,,,0.01,meteohub,2013-03-06 09:02:00,
2013-03-06 04:07:00,33.4,32.2,29.67,SW,229,1.0,7.0,95,0.00,,,0.01,meteohub,2013-03-06 09:07:00,
2013-03-06 04:12:00,33.4,32.2,29.67,NNE,21,0.0,7.0,95,0.00,,,0.01,meteohub,2013-03-06 09:12:00,
2013-03-06 04:17:00,33.4,32.2,29.67,SW,226,0.0,7.0,95,0.00,,,0.01,meteohub,2013-03-06 09:17:00,
2013-03-06 04:22:00,33.4,32.2,29.67,North,5,2.0,7.0,95,0.00,,,0.01,meteohub,2013-03-06 09:22:00,
2013-03-06 04:27:00,33.4,32.2,29.67,North,355,3.0,7.0,95,0.00,,,0.01,meteohub,2013-03-06 09:27:00,
2013-03-06 04:32:00,33.4,32.2,29.67,North,9,1.0,7.0,95,0.00,,,0.01,meteohub,2013-03-06 09:32:00,
2013-03-06 04:37:00,33.4,32.2,29.67,NNE,16,0.0,7.0,95,0.00,,,0.01,meteohub,2013-03-06 09:37:00,
2013-03-06 04:42:00,33.4,32.2,29.67,ESE,111,0.0,7.0,95,0.00,,,0.01,meteohub,2013-03-06 09:42:00,
2013-03-06 04:47:00,33.4,32.2,29.67,ENE,69,0.0,9.0,95,0.00,,,0.01,meteohub,2013-03-06 09:47:00,
2013-03-06 04:52:00,33.4,32.2,29.66,NE,48,5.0,9.0,95,0.00,,,0.01,meteohub,2013-03-06 09:52:00,
2013-03-06 04:57:00,33.4,32.2,29.66,North,5,1.0,10.0,95,0.00,,,0.01,meteohub,2013-03-06 09:57:00,
2013-03-06 05:02:00,33.4,32.2,29.66,North,5,1.0,10.0,95,0.00,,,0.01,meteohub,2013-03-06 10:02:00,
2013-03-06 05:07:00,33.4,32.2,29.66,South,177,0.0,10.0,95,0.00,,,0.01,meteohub,2013-03-06 10:07:00,
2013-03-06 05:12:00,33.4,32.2,29.65,ENE,66,0.0,9.0,95,0.00,,,0.01,meteohub,2013-03-06 10:12:00,
2013-03-06 05:17:00,33.4,32.2,29.65,NNE,26,2.0,9.0,95,0.01,,,0.02,meteohub,2013-03-06 10:17:00,
2013-03-06 05:22:00,33.4,32.2,29.65,North,5,0.0,9.0,95,0.01,,,0.02,meteohub,2013-03-06 10:22:00,
2013-03-06 05:27:00,33.4,32.2,29.65,ENE,63,0.0,9.0,95,0.01,,,0.02,meteohub,2013-03-06 10:27:00,
2013-03-06 05:32:00,33.4,32.2,29.66,ENE,65,0.0,9.0,95,0.01,,,0.02,meteohub,2013-03-06 10:32:00,
2013-03-06 05:37:00,33.4,32.2,29.67,NE,54,2.0,6.0,95,0.01,,,0.02,meteohub,2013-03-06 10:37:00,
2013-03-06 05:42:00,33.6,32.4,29.66,NE,42,0.0,7.0,95,0.02,,,0.03,meteohub,2013-03-06 10:42:00,
2013-03-06 05:47:00,33.6,32.4,29.66,NNE,20,6.0,7.0,95,0.02,,,0.03,meteohub,2013-03-06 10:47:00,
2013-03-06 05:52:00,33.6,32.4,29.66,NE,37,7.0,10.0,95,0.02,,,0.03,meteohub,2013-03-06 10:52:00,
2013-03-06 05:57:00,33.6,32.4,29.65,NE,46,1.0,10.0,95,0.02,,,0.03,meteohub,2013-03-06 10:57:00,
2013-03-06 06:02:00,33.6,32.4,29.65,NE,40,6.0,10.0,95,0.03,,,0.04,meteohub,2013-03-06 11:02:00,
2013-03-06 06:06:00,33.6,32.4,29.65,NNE,15,7.0,8.0,95,0.03,,,0.04,meteohub,2013-03-06 11:06:00,
2013-03-06 06:12:00,33.6,32.4,29.64,NE,53,4.0,10.0,95,0.03,,,0.04,meteohub,2013-03-06 11:12:00,
2013-03-06 06:17:00,34.0,32.9,29.64,NE,38,3.0,15.0,96,0.02,,,0.04,meteohub,2013-03-06 11:17:00,
2013-03-06 06:22:00,34.0,32.9,29.64,NE,34,5.0,15.0,96,0.02,,,0.04,meteohub,2013-03-06 11:22:00,
2013-03-06 06:27:00,34.2,33.1,29.64,NW,311,4.0,15.0,96,0.03,,,0.05,meteohub,2013-03-06 11:27:00,
2013-03-06 06:32:00,34.2,33.1,29.64,East,90,1.0,11.0,96,0.03,,,0.05,meteohub,2013-03-06 11:32:00,
2013-03-06 06:37:00,34.2,33.1,29.63,North,11,3.0,11.0,96,0.03,,,0.05,meteohub,2013-03-06 11:37:00,
2013-03-06 06:41:00,34.2,33.1,29.63,NNE,30,5.0,11.0,96,0.03,,,0.06,meteohub,2013-03-06 11:41:00,
2013-03-06 06:47:00,34.2,33.1,29.63,NE,39,6.0,16.0,96,0.03,,,0.06,meteohub,2013-03-06 11:47:00,
2013-03-06 06:52:00,34.2,33.1,29.64,North,350,4.0,16.0,96,0.03,,,0.06,meteohub,2013-03-06 11:52:00,
2013-03-06 06:57:00,34.2,33.1,29.63,North,0,5.0,11.0,96,0.03,,,0.06,meteohub,2013-03-06 11:57:00,
2013-03-06 07:02:00,34.2,33.1,29.63,NNW,344,3.0,11.0,96,0.03,,,0.07,meteohub,2013-03-06 12:02:00,
2013-03-06 07:07:00,34.2,33.1,29.63,North,355,3.0,12.0,96,0.03,,,0.07,meteohub,2013-03-06 12:07:00,
2013-03-06 07:12:00,34.3,33.3,29.63,ENE,67,2.0,12.0,96,0.03,,,0.07,meteohub,2013-03-06 12:12:00,
2013-03-06 07:17:00,34.3,33.3,29.63,NE,49,4.0,12.0,96,0.04,,,0.08,meteohub,2013-03-06 12:17:00,
2013-03-06 07:22:00,34.3,33.3,29.64,ESE,107,3.0,10.0,96,0.03,,,0.08,meteohub,2013-03-06 12:22:00,
2013-03-06 07:27:00,34.3,33.3,29.64,North,10,2.0,10.0,96,0.03,,,0.08,meteohub,2013-03-06 12:27:00,
2013-03-06 07:32:00,34.3,33.3,29.64,NE,46,7.0,10.0,96,0.03,,,0.08,meteohub,2013-03-06 12:32:00,
2013-03-06 07:37:00,34.3,33.3,29.64,North,0,2.0,11.0,96,0.03,,,0.09,meteohub,2013-03-06 12:37:00,
2013-03-06 07:42:00,34.3,33.3,29.64,ENE,78,2.0,11.0,96,0.03,,,0.09,meteohub,2013-03-06 12:42:00,
2013-03-06 07:47:00,34.3,33.3,29.64,NNE,23,0.0,11.0,96,0.03,,,0.09,meteohub,2013-03-06 12:47:00,
2013-03-06 07:52:00,34.3,33.3,29.64,North,11,2.0,5.0,96,0.03,,,0.09,meteohub,2013-03-06 12:52:00,
2013-03-06 07:57:00,34.3,33.3,29.64,East,93,3.0,9.0,96,0.03,,,0.10,meteohub,2013-03-06 12:57:00,
2013-03-06 08:02:00,34.3,33.3,29.64,North,10,0.0,9.0,96,0.03,,,0.10,meteohub,2013-03-06 13:02:00,
2013-03-06 08:07:00,34.3,33.3,29.65,NNE,18,6.0,12.0,96,0.03,,,0.10,meteohub,2013-03-06 13:07:00,
2013-03-06 08:12:00,34.3,33.3,29.65,NE,40,2.0,13.0,96,0.03,,,0.10,meteohub,2013-03-06 13:12:00,
2013-03-06 08:17:00,34.5,33.4,29.65,NNE,28,7.0,13.0,96,0.03,,,0.11,meteohub,2013-03-06 13:17:00,
2013-03-06 08:22:00,34.3,33.3,29.65,North,355,2.0,13.0,96,0.03,,,0.11,meteohub,2013-03-06 13:22:00,
2013-03-06 08:27:00,34.3,33.3,29.65,NE,47,2.0,14.0,96,0.03,,,0.11,meteohub,2013-03-06 13:27:00,
2013-03-06 08:32:00,34.3,33.3,29.65,NW,325,5.0,14.0,96,0.04,,,0.12,meteohub,2013-03-06 13:32:00,
2013-03-06 08:37:00,34.3,33.3,29.65,NNE,30,5.0,10.0,96,0.03,,,0.12,meteohub,2013-03-06 13:37:00,
2013-03-06 08:42:00,34.2,33.1,29.65,NE,36,3.0,9.0,96,0.03,,,0.12,meteohub,2013-03-06 13:42:00,
2013-03-06 08:46:00,33.8,32.5,29.65,NNW,343,2.0,10.0,95,0.03,,,0.12,meteohub,2013-03-06 13:46:00,
2013-03-06 08:52:00,33.4,32.2,29.65,NE,36,3.0,10.0,95,0.03,,,0.13,meteohub,2013-03-06 13:52:00,
2013-03-06 08:57:00,33.3,32.0,29.65,NNE,32,2.0,7.0,95,0.03,,,0.13,meteohub,2013-03-06 13:57:00,
2013-03-06 09:02:00,33.3,32.0,29.65,NW,326,2.0,8.0,95,0.03,,,0.13,meteohub,2013-03-06 14:02:00,
2013-03-06 09:07:00,33.3,32.0,29.65,North,355,2.0,8.0,95,0.03,,,0.13,meteohub,2013-03-06 14:07:00,
2013-03-06 09:12:00,33.3,32.2,29.65,NNE,20,1.0,6.0,96,0.02,,,0.13,meteohub,2013-03-06 14:12:00,
2013-03-06 09:17:00,33.3,32.2,29.65,NNW,340,2.0,5.0,96,0.03,,,0.14,meteohub,2013-03-06 14:17:00,
2013-03-06 09:22:00,33.3,32.2,29.65,NNW,345,2.0,6.0,96,0.03,,,0.14,meteohub,2013-03-06 14:22:00,
2013-03-06 09:27:00,33.3,32.2,29.65,NE,54,2.0,6.0,96,0.03,,,0.14,meteohub,2013-03-06 14:27:00,
2013-03-06 09:32:00,33.4,32.4,29.65,North,349,3.0,5.0,96,0.02,,,0.14,meteohub,2013-03-06 14:32:00,
2013-03-06 09:37:00,33.4,32.4,29.65,NE,50,3.0,5.0,96,0.02,,,0.14,meteohub,2013-03-06 14:37:00,
2013-03-06 09:42:00,33.4,32.4,29.65,NNW,333,2.0,5.0,96,0.02,,,0.14,meteohub,2013-03-06 14:42:00,
2013-03-06 09:47:00,33.4,32.4,29.65,NNE,24,2.0,6.0,96,0.01,,,0.14,meteohub,2013-03-06 14:47:00,
2013-03-06 09:52:00,33.4,32.4,29.65,NE,42,3.0,6.0,96,0.01,,,0.14,meteohub,2013-03-06 14:52:00,
2013-03-06 09:57:00,33.4,32.4,29.65,North,355,4.0,6.0,96,0.02,,,0.15,meteohub,2013-03-06 14:57:00,
2013-03-06 10:02:00,33.4,32.4,29.66,North,9,0.0,5.0,96,0.02,,,0.15,meteohub,2013-03-06 15:02:00,
2013-03-06 10:07:00,33.4,32.4,29.66,NNW,346,3.0,5.0,96,0.02,,,0.15,meteohub,2013-03-06 15:07:00,
2013-03-06 10:12:00,33.4,32.4,29.66,NNW,342,2.0,5.0,96,0.02,,,0.15,meteohub,2013-03-06 15:12:00,
2013-03-06 10:17:00,33.4,32.4,29.66,NE,49,3.0,5.0,96,0.02,,,0.16,meteohub,2013-03-06 15:17:00,
2013-03-06 10:22:00,33.4,32.4,29.66,NNE,17,1.0,6.0,96,0.02,,,0.16,meteohub,2013-03-06 15:22:00,
2013-03-06 10:27:00,33.3,32.2,29.66,NNW,345,2.0,6.0,96,0.02,,,0.16,meteohub,2013-03-06 15:27:00,
2013-03-06 10:32:00,33.3,32.2,29.66,NW,321,1.0,7.0,96,0.02,,,0.16,meteohub,2013-03-06 15:32:00,
2013-03-06 10:37:00,33.4,32.4,29.66,NE,37,3.0,8.0,96,0.03,,,0.17,meteohub,2013-03-06 15:37:00,
2013-03-06 10:42:00,33.4,32.4,29.66,NW,321,1.0,8.0,96,0.03,,,0.17,meteohub,2013-03-06 15:42:00,
2013-03-06 10:47:00,33.4,32.4,29.66,NNW,330,1.0,8.0,96,0.03,,,0.17,meteohub,2013-03-06 15:47:00,
2013-03-06 10:52:00,33.4,32.4,29.66,NNE,17,2.0,6.0,96,0.04,,,0.18,meteohub,2013-03-06 15:52:00,
2013-03-06 10:57:00,33.4,32.4,29.66,NNW,338,0.0,7.0,96,0.03,,,0.18,meteohub,2013-03-06 15:57:00,
2013-03-06 11:02:00,33.6,32.5,29.66,North,355,2.0,7.0,96,0.03,,,0.18,meteohub,2013-03-06 16:02:00,
2013-03-06 11:07:00,33.6,32.5,29.66,NNW,346,3.0,5.0,96,0.03,,,0.18,meteohub,2013-03-06 16:07:00,
2013-03-06 11:12:00,33.6,32.5,29.66,NNE,20,3.0,5.0,96,0.04,,,0.19,meteohub,2013-03-06 16:12:00,
2013-03-06 11:17:00,33.6,32.5,29.66,NNW,338,3.0,9.0,96,0.03,,,0.19,meteohub,2013-03-06 16:17:00,
2013-03-06 11:22:00,33.8,32.7,29.67,NW,317,3.0,9.0,96,0.04,,,0.20,meteohub,2013-03-06 16:22:00,
2013-03-06 11:27:00,33.6,32.5,29.67,NNW,336,3.0,9.0,96,0.04,,,0.20,meteohub,2013-03-06 16:27:00,
2013-03-06 11:32:00,33.8,32.7,29.67,NNW,336,4.0,8.0,96,0.04,,,0.20,meteohub,2013-03-06 16:32:00,
2013-03-06 11:37:00,34.0,32.9,29.67,North,10,1.0,9.0,96,0.04,,,0.21,meteohub,2013-03-06 16:37:00,
2013-03-06 11:42:00,34.0,32.9,29.67,NNW,345,3.0,9.0,96,0.04,,,0.21,meteohub,2013-03-06 16:42:00,
2013-03-06 11:47:00,34.2,33.1,29.67,NNW,346,5.0,9.0,96,0.05,,,0.22,meteohub,2013-03-06 16:47:00,
2013-03-06 11:52:00,34.2,33.1,29.67,WNW,296,3.0,9.0,96,0.04,,,0.22,meteohub,2013-03-06 16:52:00,
2013-03-06 11:57:00,34.2,33.1,29.67,NNW,331,2.0,9.0,96,0.04,,,0.22,meteohub,2013-03-06 16:57:00,
2013-03-06 12:02:00,34.2,33.1,29.67,NW,311,4.0,8.0,96,0.05,,,0.23,meteohub,2013-03-06 17:02:00,
2013-03-06 12:07:00,34.2,33.1,29.67,NE,40,3.0,8.0,96,0.05,,,0.23,meteohub,2013-03-06 17:07:00,
2013-03-06 12:12:00,34.2,33.1,29.67,NNW,344,1.0,9.0,96,0.05,,,0.24,meteohub,2013-03-06 17:12:00,
2013-03-06 12:17:00,34.0,32.9,29.67,NNE,28,2.0,9.0,96,0.05,,,0.24,meteohub,2013-03-06 17:17:00,
2013-03-06 12:22:00,34.0,32.9,29.67,NNE,31,18.0,18.0,96,0.04,,,0.24,meteohub,2013-03-06 17:22:00,
2013-03-06 12:27:00,34.0,32.9,29.68,NW,325,4.0,18.0,96,0.05,,,0.25,meteohub,2013-03-06 17:27:00,
2013-03-06 12:32:00,34.0,32.9,29.68,NE,46,4.0,18.0,96,0.05,,,0.26,meteohub,2013-03-06 17:32:00,
2013-03-06 12:37:00,34.0,32.9,29.68,North,0,7.0,18.0,96,0.05,,,0.26,meteohub,2013-03-06 17:37:00,
2013-03-06 12:42:00,34.0,32.9,29.68,NW,325,3.0,10.0,96,0.05,,,0.26,meteohub,2013-03-06 17:42:00,
2013-03-06 12:47:00,34.0,32.9,29.68,NNW,342,8.0,11.0,96,0.04,,,0.26,meteohub,2013-03-06 17:47:00,
2013-03-06 12:52:00,34.0,32.9,29.68,NW,324,7.0,11.0,96,0.05,,,0.27,meteohub,2013-03-06 17:52:00,
2013-03-06 12:57:00,34.0,32.9,29.68,NE,38,5.0,11.0,96,0.05,,,0.27,meteohub,2013-03-06 17:57:00,
2013-03-06 13:02:00,34.0,32.9,29.68,North,355,2.0,9.0,96,0.05,,,0.28,meteohub,2013-03-06 18:02:00,
2013-03-06 13:07:00,34.2,33.1,29.68,NNW,332,4.0,9.0,96,0.05,,,0.28,meteohub,2013-03-06 18:07:00,
2013-03-06 13:12:00,34.2,33.1,29.69,North,355,1.0,9.0,96,0.04,,,0.28,meteohub,2013-03-06 18:12:00,
2013-03-06 13:17:00,34.3,33.3,29.69,NNE,26,0.0,14.0,96,0.05,,,0.29,meteohub,2013-03-06 18:17:00,
2013-03-06 13:22:00,34.3,33.3,29.69,North,350,4.0,15.0,96,0.04,,,0.29,meteohub,2013-03-06 18:22:00,
2013-03-06 13:27:00,34.5,33.4,29.69,NNW,336,5.0,15.0,96,0.04,,,0.29,meteohub,2013-03-06 18:27:00,
2013-03-06 13:32:00,34.5,33.4,29.69,North,355,2.0,14.0,96,0.04,,,0.30,meteohub,2013-03-06 18:32:00,
2013-03-06 13:37:00,34.5,33.4,29.70,North,0,3.0,12.0,96,0.04,,,0.30,meteohub,2013-03-06 18:37:00,
2013-03-06 13:42:00,34.5,33.4,29.70,NNW,338,1.0,12.0,96,0.05,,,0.31,meteohub,2013-03-06 18:42:00,
2013-03-06 13:47:00,34.5,33.4,29.71,NNW,339,11.0,12.0,96,0.05,,,0.31,meteohub,2013-03-06 18:47:00,
2013-03-06 13:52:00,34.5,33.8,29.71,NW,325,8.0,14.0,97,0.04,,,0.31,meteohub,2013-03-06 18:52:00,
2013-03-06 13:57:00,34.5,33.8,29.72,NNE,22,2.0,14.0,97,0.05,,,0.32,meteohub,2013-03-06 18:57:00,
2013-03-06 14:02:00,34.5,33.8,29.72,North,355,3.0,14.0,97,0.04,,,0.32,meteohub,2013-03-06 19:02:00,
2013-03-06 14:07:00,34.7,34.0,29.72,NNW,342,4.0,11.0,97,0.04,,,0.32,meteohub,2013-03-06 19:07:00,
2013-03-06 14:12:00,34.9,33.8,29.72,NNW,333,5.0,11.0,96,0.05,,,0.33,meteohub,2013-03-06 19:12:00,
2013-03-06 14:17:00,34.9,33.8,29.72,North,351,5.0,10.0,96,0.04,,,0.33,meteohub,2013-03-06 19:17:00,
2013-03-06 14:22:00,35.1,34.0,29.73,North,0,3.0,18.0,96,0.05,,,0.34,meteohub,2013-03-06 19:22:00,
2013-03-06 14:27:00,35.1,34.0,29.73,NNE,26,3.0,18.0,96,0.04,,,0.34,meteohub,2013-03-06 19:27:00,
2013-03-06 14:32:00,35.1,34.0,29.73,North,0,1.0,18.0,96,0.04,,,0.34,meteohub,2013-03-06 19:32:00,
2013-03-06 14:37:00,35.2,34.2,29.73,NNW,341,2.0,11.0,96,0.05,,,0.35,meteohub,2013-03-06 19:37:00,
2013-03-06 14:42:00,35.2,34.2,29.74,NW,325,3.0,11.0,96,0.04,,,0.35,meteohub,2013-03-06 19:42:00,
2013-03-06 14:47:00,35.2,34.2,29.75,WNW,294,4.0,11.0,96,0.04,,,0.35,meteohub,2013-03-06 19:47:00,
2013-03-06 14:52:00,35.2,34.2,29.75,NNW,348,3.0,11.0,96,0.05,,,0.36,meteohub,2013-03-06 19:52:00,
2013-03-06 14:57:00,35.4,34.3,29.76,NW,319,2.0,12.0,96,0.04,,,0.36,meteohub,2013-03-06 19:57:00,
2013-03-06 15:02:00,35.4,34.3,29.76,NW,323,4.0,12.0,96,0.04,,,0.36,meteohub,2013-03-06 20:02:00,
2013-03-06 15:07:00,35.4,34.3,29.76,North,5,3.0,12.0,96,0.05,,,0.37,meteohub,2013-03-06 20:07:00,
2013-03-06 15:12:00,35.6,34.5,29.78,NNW,332,5.0,11.0,96,0.04,,,0.37,meteohub,2013-03-06 20:12:00,
2013-03-06 15:17:00,35.8,34.7,29.77,NNW,329,4.0,11.0,96,0.05,,,0.38,meteohub,2013-03-06 20:17:00,
2013-03-06 15:22:00,35.8,34.7,29.78,NW,320,1.0,11.0,96,0.04,,,0.38,meteohub,2013-03-06 20:22:00,
2013-03-06 15:27:00,35.8,34.7,29.79,NW,316,7.0,11.0,96,0.04,,,0.38,meteohub,2013-03-06 20:27:00,
2013-03-06 15:32:00,36.0,34.9,29.80,North,355,1.0,11.0,96,0.05,,,0.39,meteohub,2013-03-06 20:32:00,
2013-03-06 15:37:00,36.0,34.9,29.80,NW,324,3.0,10.0,96,0.04,,,0.39,meteohub,2013-03-06 20:37:00,
2013-03-06 15:42:00,36.0,34.9,29.80,ENE,72,3.0,10.0,96,0.04,,,0.39,meteohub,2013-03-06 20:42:00,
2013-03-06 15:47:00,36.0,34.9,29.81,ENE,59,7.0,13.0,96,0.04,,,0.40,meteohub,2013-03-06 20:47:00,
2013-03-06 15:52:00,36.1,35.1,29.81,NNW,334,2.0,13.0,96,0.04,,,0.40,meteohub,2013-03-06 20:52:00,
2013-03-06 15:57:00,36.1,35.1,29.81,North,0,4.0,13.0,96,0.04,,,0.40,meteohub,2013-03-06 20:57:00,
2013-03-06 16:02:00,36.1,35.1,29.82,WNW,300,3.0,13.0,96,0.04,,,0.41,meteohub,2013-03-06 21:02:00,
2013-03-06 16:07:00,36.1,35.1,29.82,NNW,348,2.0,13.0,96,0.05,,,0.42,meteohub,2013-03-06 21:07:00,
2013-03-06 16:12:00,36.1,35.1,29.83,NNW,348,4.0,13.0,96,0.05,,,0.42,meteohub,2013-03-06 21:12:00,
2013-03-06 16:17:00,36.3,35.2,29.83,East,94,1.0,12.0,96,0.04,,,0.42,meteohub,2013-03-06 21:17:00,
2013-03-06 16:22:00,36.3,35.2,29.83,NW,319,4.0,12.0,96,0.05,,,0.42,meteohub,2013-03-06 21:22:00,
2013-03-06 16:27:00,36.3,35.2,29.84,North,355,2.0,12.0,96,0.05,,,0.43,meteohub,2013-03-06 21:27:00,
2013-03-06 16:32:00,36.3,35.2,29.84,WNW,300,1.0,9.0,96,0.04,,,0.43,meteohub,2013-03-06 21:32:00,
2013-03-06 16:37:00,36.3,35.2,29.85,NNW,346,4.0,11.0,96,0.05,,,0.44,meteohub,2013-03-06 21:37:00,
2013-03-06 16:42:00,36.5,35.4,29.86,NNE,15,2.0,11.0,96,0.04,,,0.44,meteohub,2013-03-06 21:42:00,
2013-03-06 16:47:00,36.5,35.4,29.86,NNW,332,1.0,11.0,96,0.04,,,0.44,meteohub,2013-03-06 21:47:00,
2013-03-06 16:52:00,36.5,35.4,29.86,NNW,342,2.0,10.0,96,0.04,,,0.44,meteohub,2013-03-06 21:52:00,
2013-03-06 16:57:00,36.7,35.6,29.87,NW,325,3.0,10.0,96,0.04,,,0.45,meteohub,2013-03-06 21:57:00,
2013-03-06 17:02:00,36.7,35.6,29.87,North,10,1.0,10.0,96,0.04,,,0.45,meteohub,2013-03-06 22:02:00,
2013-03-06 17:07:00,36.7,35.6,29.88,WNW,290,2.0,14.0,96,0.03,,,0.45,meteohub,2013-03-06 22:07:00,
2013-03-06 17:12:00,36.7,35.6,29.88,North,351,3.0,14.0,96,0.04,,,0.46,meteohub,2013-03-06 22:12:00,
2013-03-06 17:17:00,36.5,35.4,29.88,NW,321,2.0,14.0,96,0.04,,,0.46,meteohub,2013-03-06 22:17:00,
2013-03-06 17:22:00,36.5,35.4,29.89,NW,326,2.0,7.0,96,0.03,,,0.46,meteohub,2013-03-06 22:22:00,
2013-03-06 17:27:00,36.3,35.2,29.89,NNW,333,2.0,7.0,96,0.03,,,0.46,meteohub,2013-03-06 22:27:00,
2013-03-06 17:32:00,36.3,35.2,29.89,NNW,336,3.0,8.0,96,0.03,,,0.46,meteohub,2013-03-06 22:32:00,
2013-03-06 17:37:00,36.3,35.1,29.90,North,355,3.0,8.0,95,0.02,,,0.46,meteohub,2013-03-06 22:37:00,
2013-03-06 17:42:00,36.3,35.2,29.90,NNW,330,2.0,9.0,96,0.03,,,0.47,meteohub,2013-03-06 22:42:00,
2013-03-06 17:47:00,36.3,35.2,29.91,North,0,3.0,9.0,96,0.03,,,0.47,meteohub,2013-03-06 22:47:00,
2013-03-06 17:52:00,36.5,35.4,29.91,North,5,2.0,9.0,96,0.02,,,0.47,meteohub,2013-03-06 22:52:00,
2013-03-06 17:57:00,36.7,35.6,29.92,North,355,4.0,6.0,96,0.02,,,0.47,meteohub,2013-03-06 22:57:00,
2013-03-06 18:02:00,36.7,35.6,29.92,NW,321,5.0,6.0,96,0.03,,,0.48,meteohub,2013-03-06 23:02:00,
2013-03-06 18:07:00,36.7,35.6,29.93,NW,311,6.0,6.0,96,0.02,,,0.48,meteohub,2013-03-06 23:07:00,
2013-03-06 18:12:00,36.7,35.6,29.93,NNW,336,1.0,6.0,96,0.02,,,0.48,meteohub,2013-03-06 23:12:00,
2013-03-06 18:17:00,36.7,35.6,29.94,NW,323,0.0,6.0,96,0.02,,,0.48,meteohub,2013-03-06 23:17:00,
2013-03-06 18:22:00,36.7,35.6,29.94,South,184,1.0,8.0,96,0.02,,,0.48,meteohub,2013-03-06 23:22:00,
2013-03-06 18:27:00,36.7,35.6,29.94,North,355,3.0,8.0,96,0.02,,,0.48,meteohub,2013-03-06 23:27:00,
2013-03-06 18:32:00,36.7,35.6,29.94,NW,323,5.0,8.0,96,0.02,,,0.48,meteohub,2013-03-06 23:32:00,
2013-03-06 18:37:00,36.7,35.6,29.94,NNW,337,1.0,9.0,96,0.02,,,0.49,meteohub,2013-03-06 23:37:00,
2013-03-06 18:42:00,36.7,35.6,29.95,NNW,341,3.0,9.0,96,0.02,,,0.49,meteohub,2013-03-06 23:42:00,
2013-03-06 18:47:00,36.9,35.6,29.95,NNW,336,5.0,8.0,95,0.02,,,0.49,meteohub,2013-03-06 23:47:00,
2013-03-06 18:52:00,36.9,35.6,29.96,NNW,344,3.0,9.0,95,0.02,,,0.49,meteohub,2013-03-06 23:52:00,
2013-03-06 18:57:00,36.9,35.6,29.96,NNW,340,1.0,11.0,95,0.01,,,0.49,meteohub,2013-03-06 23:57:00,
2013-03-06 19:02:00,36.9,35.6,29.96,NNW,327,4.0,11.0,95,0.01,,,0.49,meteohub,2013-03-07 00:02:00,
2013-03-06 19:07:00,36.9,35.6,29.96,NNW,331,5.0,11.0,95,0.01,,,0.49,meteohub,2013-03-07 00:07:00,
2013-03-06 19:12:00,37.0,35.8,29.96,NNW,344,3.0,8.0,95,0.02,,,0.50,meteohub,2013-03-07 00:12:00,
2013-03-06 19:17:00,37.0,35.4,29.97,North,5,3.0,8.0,94,0.02,,,0.50,meteohub,2013-03-07 00:17:00,
2013-03-06 19:21:00,37.0,35.4,29.97,NW,326,5.0,7.0,94,0.02,,,0.50,meteohub,2013-03-07 00:21:00,
2013-03-06 19:27:00,37.2,35.6,29.97,NW,321,4.0,8.0,94,0.02,,,0.50,meteohub,2013-03-07 00:27:00,
2013-03-06 19:32:00,37.2,35.6,29.97,NNW,328,1.0,8.0,94,0.02,,,0.50,meteohub,2013-03-07 00:32:00,
2013-03-06 19:37:00,37.2,35.6,29.97,NW,325,1.0,8.0,94,0.01,,,0.50,meteohub,2013-03-07 00:37:00,
2013-03-06 19:42:00,37.2,35.6,29.97,NNW,348,6.0,8.0,94,0.01,,,0.50,meteohub,2013-03-07 00:42:00,
2013-03-06 19:47:00,37.4,35.6,29.97,NNW,331,1.0,9.0,93,0.01,,,0.50,meteohub,2013-03-07 00:47:00,
2013-03-06 19:52:00,37.2,35.4,29.97,NNW,348,0.0,9.0,93,0.01,,,0.50,meteohub,2013-03-07 00:52:00,
2013-03-06 19:57:00,37.2,35.4,29.97,NNW,338,5.0,9.0,93,0.02,,,0.51,meteohub,2013-03-07 00:57:00,
2013-03-06 20:02:00,37.2,35.4,29.97,WNW,302,2.0,7.0,93,0.02,,,0.51,meteohub,2013-03-07 01:02:00,
2013-03-06 20:07:00,37.2,35.4,29.97,NW,325,3.0,7.0,93,0.01,,,0.51,meteohub,2013-03-07 01:07:00,
2013-03-06 20:12:00,37.4,35.6,29.97,NNW,334,3.0,7.0,93,0.01,,,0.51,meteohub,2013-03-07 01:12:00,
2013-03-06 20:17:00,37.4,35.6,29.97,NW,313,2.0,9.0,93,0.01,,,0.51,meteohub,2013-03-07 01:17:00,
2013-03-06 20:22:00,37.4,35.6,29.98,NW,316,1.0,9.0,93,0.01,,,0.51,meteohub,2013-03-07 01:22:00,
2013-03-06 20:27:00,37.2,35.1,29.98,NW,306,3.0,5.0,92,0.01,,,0.51,meteohub,2013-03-07 01:27:00,
2013-03-06 20:32:00,37.2,35.1,29.98,NNW,342,2.0,6.0,92,0.01,,,0.51,meteohub,2013-03-07 01:32:00,
2013-03-06 20:37:00,37.0,34.9,29.98,NNW,329,2.0,7.0,92,0.02,,,0.52,meteohub,2013-03-07 01:37:00,
2013-03-06 20:42:00,37.0,34.9,29.98,NW,323,3.0,8.0,92,0.02,,,0.52,meteohub,2013-03-07 01:42:00,
2013-03-06 20:47:00,37.0,34.9,29.98,NW,323,2.0,8.0,92,0.02,,,0.52,meteohub,2013-03-07 01:47:00,
2013-03-06 20:52:00,37.0,34.7,29.98,WNW,296,3.0,8.0,91,0.01,,,0.52,meteohub,2013-03-07 01:52:00,
2013-03-06 20:57:00,36.9,34.7,29.98,NW,316,3.0,7.0,92,0.01,,,0.52,meteohub,2013-03-07 01:57:00,
2013-03-06 21:02:00,36.9,34.5,29.98,WNW,295,1.0,4.0,91,0.01,,,0.52,meteohub,2013-03-07 02:02:00,
2013-03-06 21:07:00,36.7,34.3,29.98,NW,320,1.0,5.0,91,0.01,,,0.52,meteohub,2013-03-07 02:07:00,
2013-03-06 21:12:00,36.7,34.5,29.98,NW,320,1.0,5.0,92,0.01,,,0.52,meteohub,2013-03-07 02:12:00,
2013-03-06 21:17:00,36.3,34.0,29.98,NNW,338,1.0,4.0,91,0.01,,,0.52,meteohub,2013-03-07 02:17:00,
2013-03-06 21:22:00,36.3,34.2,29.98,NW,319,2.0,4.0,92,0.01,,,0.52,meteohub,2013-03-07 02:22:00,
2013-03-06 21:27:00,36.3,34.0,29.98,NNW,328,1.0,4.0,91,0.01,,,0.52,meteohub,2013-03-07 02:27:00,
2013-03-06 21:32:00,36.3,34.0,29.98,NNW,343,1.0,5.0,91,0.01,,,0.52,meteohub,2013-03-07 02:32:00,
2013-03-06 21:37:00,36.3,34.0,29.98,NW,325,2.0,5.0,91,0.00,,,0.52,meteohub,2013-03-07 02:37:00,
2013-03-06 21:42:00,36.5,34.2,29.98,NNW,336,2.0,5.0,91,0.00,,,0.52,meteohub,2013-03-07 02:42:00,
2013-03-06 21:47:00,36.7,34.0,29.98,NW,320,0.0,6.0,90,0.00,,,0.52,meteohub,2013-03-07 02:47:00,
2013-03-06 21:52:00,36.5,33.8,29.98,NW,318,2.0,6.0,90,0.00,,,0.52,meteohub,2013-03-07 02:52:00,
2013-03-06 21:57:00,36.7,34.0,29.98,NW,315,1.0,7.0,90,0.00,,,0.52,meteohub,2013-03-07 02:57:00,
2013-03-06 22:02:00,36.7,33.8,29.99,NNW,332,1.0,7.0,89,0.00,,,0.52,meteohub,2013-03-07 03:02:00,
2013-03-06 22:07:00,36.5,33.6,29.99,NNW,343,2.0,7.0,89,0.00,,,0.52,meteohub,2013-03-07 03:07:00,
2013-03-06 22:12:00,36.3,33.4,29.99,NW,319,2.0,6.0,89,0.00,,,0.52,meteohub,2013-03-07 03:12:00,
2013-03-06 22:17:00,36.5,33.6,30.00,NW,319,1.0,6.0,89,0.00,,,0.52,meteohub,2013-03-07 03:17:00,
2013-03-06 22:22:00,36.7,33.4,30.00,NNW,341,4.0,6.0,88,0.00,,,0.52,meteohub,2013-03-07 03:22:00,
2013-03-06 22:27:00,36.9,33.6,30.00,NNW,348,2.0,6.0,88,0.00,,,0.52,meteohub,2013-03-07 03:27:00,
2013-03-06 22:32:00,36.9,33.4,30.00,North,350,2.0,6.0,87,0.00,,,0.52,meteohub,2013-03-07 03:32:00,
2013-03-06 22:37:00,36.9,33.4,30.00,NNW,342,0.0,8.0,87,0.00,,,0.52,meteohub,2013-03-07 03:37:00,
2013-03-06 22:42:00,36.9,33.4,30.00,NW,323,1.0,8.0,87,0.00,,,0.52,meteohub,2013-03-07 03:42:00,
2013-03-06 22:47:00,36.9,33.1,30.01,NNW,346,2.0,8.0,86,0.00,,,0.52,meteohub,2013-03-07 03:47:00,
2013-03-06 22:52:00,36.9,33.4,30.01,NW,315,2.0,6.0,87,0.00,,,0.52,meteohub,2013-03-07 03:52:00,
2013-03-06 22:57:00,36.9,33.1,30.01,WNW,298,0.0,6.0,86,0.00,,,0.52,meteohub,2013-03-07 03:57:00,
2013-03-06 23:02:00,36.7,32.9,30.01,SSW,196,2.0,6.0,86,0.00,,,0.52,meteohub,2013-03-07 04:02:00,
2013-03-06 23:07:00,36.9,32.7,30.01,NW,312,4.0,4.0,85,0.00,,,0.52,meteohub,2013-03-07 04:07:00,
2013-03-06 23:12:00,36.9,33.1,30.01,NW,326,0.0,5.0,86,0.00,,,0.52,meteohub,2013-03-07 04:12:00,
2013-03-06 23:18:00,36.9,33.1,30.01,NW,311,1.0,5.0,86,0.00,,,0.52,meteohub,2013-03-07 04:18:00,
2013-03-06 23:23:00,36.9,33.1,30.02,NW,313,0.0,4.0,86,0.00,,,0.52,meteohub,2013-03-07 04:23:00,
2013-03-06 23:28:00,37.0,33.3,30.01,NNW,337,1.0,3.0,86,0.00,,,0.52,meteohub,2013-03-07 04:28:00,
2013-03-06 23:33:00,37.0,32.9,30.02,NNW,340,1.0,4.0,85,0.00,,,0.52,meteohub,2013-03-07 04:33:00,
2013-03-06 23:38:00,37.2,33.4,30.02,NNW,339,2.0,4.0,86,0.00,,,0.52,meteohub,2013-03-07 04:38:00,
2013-03-06 23:43:00,37.2,33.1,30.02,NNW,329,2.0,4.0,85,0.00,,,0.52,meteohub,2013-03-07 04:43:00,
2013-03-06 23:48:00,37.4,33.1,30.02,North,350,0.0,4.0,84,0.00,,,0.52,meteohub,2013-03-07 04:48:00,
2013-03-06 23:53:00,37.4,33.3,30.02,NNW,346,1.0,7.0,85,0.00,,,0.52,meteohub,2013-03-07 04:53:00,
2013-03-06 23:58:00,37.6,33.3,30.02,NW,324,0.0,7.0,84,0.00,,,0.52,meteohub,2013-03-07 04:58:00,